Tracking 21612 objects as of 20-Oct-2020
HD Live streaming from Space Station
objects crossing your sky now

BEIDOU 3 IGSO-2

Track BEIDOU 3 IGSO-2 now!


NORAD ID: 44337
Int'l Code: 2019-035A
Perigee: 35,739.1 km
Apogee: 35,858.4 km
Inclination: 55.1 °
Period: 1,436.4 minutes
Semi major axis: 42169 km
RCS: Unknown
Launch date: June 24, 2019
Source: People's Republic of China (PRC)
Launch site: Xichang Space Center, China (XSC)
aabbcc
Your satellite tracking list
Your tracking list is empty




NASA's NSSDC Master Catalog

Two Line Element Set (TLE):
1 44337U 19035A   20293.61785698 -.00000096 +00000-0 +00000-0 0  9991
2 44337 055.0738 177.1759 0014148 181.8668 357.4005 01.00254030004973
Source of the keplerian elements: AFSPC